SCP
0 0 0 0 0 0 0 0 0 0 0 0 0 0 0 0 0 0 0 0 0 0 0 0 0 0 0 0 0 0 0 0 0 0 0 0 0 0
0 0 0 0 0 0 0 0 0 0 0 0 0 0 0 0 0 0 0 0 0 0 0 0 0 0 0 0 0 0 0 0 0 0 0 0 0 0
0 0 0 0 0 0 0 0 0 0 0 0 0 0 0 0 0 0 0 0 0 0 0 0 0 0 0 0 0 0 0 0 0 0 0 0 0 0
0 0 0 0 0 0 0 0 0 0 0 0 0 0 0 0 0 0 0 0 0 0 0 0 0 0 0 0 0 0 0 0 0 0 0 0 0 0
0 0 0 0 0 0 0 0 0 0 0 0 0 0 0 0 0 0 0 0 0 0 0 0 0 0 0 0 0 0 0 0 0 0 0 0 0 0
0 0 0 0 0 0 0 0 0 0 0 0 0 0 0 0 0 0 0 0 0 0 0 0 0 0 0 0 0 0 0 0 0 0 0 0 0 0
0 0 0 0 0 0 0 0 0 0 0 0 0 0 0 0 0 0 0 0 0 0 0 0 0 0 0 0 0 0 0 0 0 0 0 0 0 0
0 0 0 0 0 0 0 0 0 0 0 0 0 0 0 0 0 0 0 0 0 0 0 0 0 0 0 0 0 0 0 0 0 0 -0 -0 -0 -0
0 0 0 0 0 0 0 0 0 0 0 0 0 0 0 0 0 0 0 0 0 0 0 0 0 0 0 0 0 0 0 0 0 0 0 0 0 0
0 0 0 0 0 0 0 0 0 0 0 0 0 0 0 0 0 0 0 0 0 0 0 0 0 0 0 0 0 0 0 0 0 0 0 0 0 0
0 0 0 0 0 0 0 0 0 0 0 0 0 0 0 0 0 0 0 0 0 0 0 0 0 0 0 0 0 0 0 0 0 0 0 0 0 0
0 0 0 0 0 0 0 0 0 0 0 0 0 0 0 0 0 0 0 0 0 0 0 0 0 0 0 0 0 0 0 0 0 0 0 0 0 0
0 0 0 0 0 0 0 0 0 0 0 0 0 0 0 0 0 0 0 0 0 0 0 0 0 0 0 0 0 0 0 0 0 0 0 0 0 0
0 0 0 0 0 0 0 0 0 0 0 0 0 0 0 0 0 0 0 0 0 0 0 0 0 0 0 0 0 0 0 0 0 0 0 0 0 0
0 0 0 0 0 0 0 0 0 0 0 0 0 0 0 0 0 0 0 0 0 0 0 0 0 0 0 0 0 0 0 0 0 0 0 0 0 0
0 0 0 0 0 0 0 0 0 0 0 0 0 0 0 0 0 0 0 0 0 0 0 0 0 0 0 0 0 0 0 0 0 0 0 0 0 0
0 0 0 0 0 0 0 0 0 0 0 0 0 0 0 0 0 0 0 0 0 0 0 0 0 0 0 0 0 0 0 0 0 0 0 0 0 0
0 0 0 0 0 0 0 0 0 0 0 0 0 0 0 0 0 0 0 0 0 0 0 0 0 0 0 0 0 0 0 0 0 0 0 0 0 0
0 0 0 0 0 0 0 0 0 0 0 0 0 0 0 0 0 0 0 0 0 0 0 0 0 0 0 0 0 0 0 0 0 0 0 0 0 0
0 0 0 0 0 0 0 0 0 0 0 0 0 0 0 0 0 0 0 0 0 0 0 0 0 0 0 0 0 0 0 0 0 0 0 0 0 0
0 0 0 0 0 0 0 0 0 0 0 0 0 0 0 0 0 0 0 0 0 0 0 0 0 0 0 0 0 0 0 0 0 0 0 0 0 0
0 0 0 -0 0 0 0 0 0 0 0 0 0 0 0 0 0 0 0 0 0 0 0 0 0 0 0 0 0 0 0 0 0 0 0 0 0 0
0 0 0 -0 -0 0 0 0 0 0 0 0 0 0 0 0 0 0 0 0 0 0 0 0 0 0 0 0 0 0 0 0 0 0 0 0 0 0
Wind_Speed
5 5 5 4 4 4 4 4 4 4 4 3 2 2 2 2 3 3 3 4 6 6 6 7 8 8 8 8 8 8 8 8 8 8 8 9 9 9
3 4 4 3 3 3 4 4 4 5 4 2 3 2 2 2 2 3 3 3 4 5 5 6 5 6 6 7 7 8 8 7 7 8 7 7 7 8
3 4 4 3 3 3 3 3 4 4 5 3 2 2 2 2 2 1 2 2 2 2 4 4 4 5 5 5 5 6 6 7 7 6 6 6 7 7
4 4 4 3 3 3 3 4 4 4 4 4 2 1 2 2 1 1 1 1 1 0 1 1 2 3 3 3 3 4 4 5 5 5 4 4 5 6
3 3 3 3 3 2 3 3 3 3 3 3 2 1 1 1 0 0 1 1 1 2 2 1 1 0 0 0 1 1 2 2 2 2 2 2 3 3
1 1 2 2 3 2 2 2 2 2 2 2 1 1 0 1 0 0 1 1 2 2 3 3 4 4 4 3 2 1 1 1 1 1 2 2 3 3
1 1 1 1 1 1 1 1 2 1 1 1 1 0 0 0 0 0 0 1 1 2 2 2 2 2 3 3 3 3 3 2 2 2 2 2 3 3
1 1 2 2 3 4 4 4 3 2 2 1 1 0 1 1 1 0 1 0 1 2 1 2 2 2 2 2 4 4 4 4 3 3 3 3 3 3
3 3 2 3 4 4 6 7 7 6 3 2 2 0 1 1 0 0 0 1 0 2 1 1 2 2 2 3 5 4 4 4 4 4 3 3 4 4
5 4 4 4 4 5 6 7 7 7 6 4 3 3 2 2 1 1 1 1 0 1 1 1 2 2 2 2 4 5 5 5 4 4 4 4 4 4
6 6 5 5 7 7 7 7 7 6 8 10 9 8 8 8 4 2 2 1 1 1 2 1 1 2 1 1 2 4 4 4 4 5 5 5 5 4
6 6 9 8 9 8 6 6 6 4 5 6 7 7 7 8 9 4 2 1 1 1 3 1 1 1 1 1 2 3 3 4 5 5 5 5 5 3
5 5 6 11 11 10 8 6 5 4 5 5 5 6 6 5 6 5 4 2 2 1 2 2 1 1 1 2 2 2 3 3 4 4 4 5 5 4
5 5 7 11 12 11 9 9 9 7 5 5 5 5 5 5 4 5 5 4 3 2 3 2 1 1 1 2 2 3 3 3 3 4 4 4 4 4
6 9 10 11 10 9 11 11 8 6 5 5 5 5 4 4 4 4 5 5 5 5 5 4 2 1 1 1 2 3 3 3 4 4 4 4 4 4
6 9 11 12 9 9 8 7 6 6 5 4 4 3 3 4 5 4 4 4 4 4 6 7 5 3 1 1 1 2 3 3 4 4 4 3 3 3
6 6 6 6 6 6 6 6 5 5 5 4 4 4 4 4 4 4 4 4 4 4 5 5 5 4 2 1 1 3 3 3 3 4 3 3 3 3
7 6 5 5 5 4 4 4 4 4 4 4 4 4 4 4 4 4 4 3 3 4 4 4 4 3 2 2 2 3 3 3 4 3 2 2 3 3
7 5 4 4 4 4 3 3 3 3 3 3 4 3 3 3 3 3 4 4 3 4 4 4 4 4 4 4 3 2 3 4 4 3 3 2 3 3
5 4 4 3 3 3 3 3 3 3 3 3 3 3 3 3 3 3 3 4 4 3 4 4 4 4 3 3 3 4 3 3 3 3 3 3 2 3
4 3 3 3 2 2 2 2 3 3 3 3 3 3 3 2 3 3 3 4 3 3 4 4 4 5 3 2 2 3 4 3 2 2 3 3 3 3
3 3 2 2 2 2 2 2 2 2 3 3 3 2 2 2 2 3 3 3 3 3 4 4 5 3 2 2 3 4 5 5 3 2 2 2 3 3
2 2 2 2 2 2 2 2 2 2 2 2 2 2 2 2 2 2 3 3 3 3 4 4 4 3 3 2 3 3 5 6 4 4 4 4 3 4
Wind_Direction
216 218 223 227 219 217 207 196 203 240 259 251 252 258 242 234 245 224 224 227 220 221 227 231 232 232 232 233 236 238 240 240 241 244 249 251 253 256
215 218 226 231 224 219 217 214 211 218 244 248 235 250 250 251 240 229 232 244 244 239 237 237 238 239 237 236 236 237 237 239 241 243 245 248 250 253
219 217 232 226 221 221 217 214 214 208 231 256 240 247 237 258 270 243 240 237 250 254 246 245 241 237 233 232 236 238 238 239 241 240 243 248 252 255
220 217 233 226 225 222 213 218 217 209 214 246 257 251 243 252 259 262 285 250 238 317 247 253 246 234 233 233 239 245 248 246 242 239 242 254 261 261
217 217 233 219 229 228 216 220 220 211 201 214 248 254 260 265 219 37 22 355 10 35 39 29 18 64 21 298 295 277 270 260 257 255 256 265 274 276
222 226 236 221 229 226 218 213 200 186 180 192 225 265 313 334 46 58 19 26 16 14 20 34 41 57 48 39 36 36 30 341 314 301 288 282 278 276
74 43 45 66 72 127 174 157 157 162 164 173 194 99 341 12 336 294 77 27 28 15 14 17 23 36 25 14 23 38 45 38 20 355 328 304 287 279
62 47 49 53 65 80 87 92 109 147 155 150 149 165 294 285 308 262 226 306 351 358 5 10 32 37 24 28 25 39 43 36 28 16 358 338 312 292
57 53 52 50 67 79 78 73 64 64 87 125 105 48 320 306 220 44 64 96 276 326 338 351 10 15 11 29 30 36 35 30 26 18 6 346 327 312
59 58 65 58 61 81 82 69 59 50 56 66 73 57 50 40 65 141 134 126 108 6 6 338 340 333 345 19 32 36 34 34 30 20 3 344 330 318
56 53 62 66 63 80 86 80 66 52 58 63 64 61 53 47 45 69 66 81 26 8 9 345 327 317 319 352 22 27 26 23 14 9 4 356 345 332
59 52 55 65 61 67 81 85 78 57 55 53 50 44 43 41 40 42 42 61 38 8 3 350 339 344 336 349 355 3 8 10 7 9 7 1 355 350
71 60 54 62 62 61 66 72 77 74 65 63 55 46 41 38 35 34 33 44 57 29 1 357 350 353 330 319 334 353 2 359 357 359 6 4 356 356
80 73 70 70 67 63 64 63 66 68 66 61 55 43 34 27 21 26 36 43 43 33 2 9 1 343 329 323 325 338 348 358 359 356 357 4 8 12
82 83 77 72 70 64 58 57 58 60 64 63 55 41 26 17 21 28 32 38 44 38 28 20 13 352 342 325 327 332 334 348 359 357 356 1 359 360
80 75 72 68 67 62 54 49 49 53 60 59 50 38 29 31 33 27 23 15 33 28 24 22 16 12 14 2 341 342 342 336 342 349 350 353 1 9
91 73 64 61 59 54 50 46 44 44 47 44 46 43 35 33 28 19 22 25 32 18 8 8 9 16 24 4 8 2 354 350 345 344 344 352 360 5
85 76 70 66 64 58 52 47 43 41 40 43 46 42 37 32 28 24 27 30 28 15 9 1 357 5 23 52 25 349 351 344 339 342 343 340 348 358
79 77 73 67 61 56 50 47 41 32 33 41 41 35 33 34 35 27 22 20 15 8 4 1 3 7 8 1 2 8 339 336 335 341 341 330 321 330
71 76 73 67 60 54 48 44 39 35 35 33 34 30 25 26 28 22 17 10 2 358 359 4 4 355 341 330 325 329 336 328 330 334 334 322 306 296
75 72 67 65 58 51 44 40 42 38 30 26 24 17 12 13 14 9 4 1 359 353 349 348 336 320 299 297 317 334 341 336 304 311 322 320 323 328
83 77 63 55 53 50 46 40 39 35 25 23 12 4 359 359 358 352 349 348 346 343 334 334 339 344 357 359 350 341 342 348 350 314 280 283 312 328
89 82 68 50 44 43 39 33 30 20 11 3 357 350 347 343 337 336 337 338 340 346 346 345 352 359 358 352 347 346 349 348 348 355 5 1 325 298